Location: Unspecified
(0.0000°N, 0.0000°E)
Time: 11:22:27
(UTC+00:00)

ISS - Pass Details

Date: 05 April 2024
Orbit: 412 x 418 km, 51.6° (Epoch: 20 April)

Event Time Altitude Azimuth Distance (km) Brightness Sun altitude
Rises 18:59:22 0° 355° (N) 2,348 0.2 -14.1°
Reaches altitude 10° 19:02:18 10° 23° (NNE) 1,491 -1.1 -14.9°
Enters shadow 19:03:04 12° 36° (NE) 1,365 -1.4 -15.0°
